This is the latest recevied weather packets stored in our database for station/object N9OJR. If no packets are shown the sender has not sent any weather packets the latest 10 day(s).
| Time | Temp. | Humidity | Pressure | Rain* | Wind** | Luminosity | Snow |
|---|---|---|---|---|---|---|---|
| 1777998058 | 21.11° C | 64% | 1004.3 hPa | 0 mm | - | 464 W/m² | - |
| 1777997755 | 21.11° C | 65% | 1004.1 hPa | 0 mm | - | 271 W/m² | - |
| 1777997452 | 21.67° C | 64% | 1004.3 hPa | 0 mm | - | 261 W/m² | - |
| 1777997150 | 21.11° C | 65% | 1004.2 hPa | 0 mm | - | 337 W/m² | - |
| 1777996847 | 21.67° C | 63% | 1004.2 hPa | 0 mm | - | 352 W/m² | - |
| 1777996543 | 21.67° C | 66% | 1004 hPa | 0 mm | - | 295 W/m² | - |
| 1777996239 | 21.11° C | 67% | 1004 hPa | 0 mm | - | 643 W/m² | - |
| 1777995936 | 20.56° C | 66% | 1003.6 hPa | 0 mm | - | 713 W/m² | - |
| 1777995632 | 20.56° C | 66% | 1003.9 hPa | 0 mm | - | 706 W/m² | - |
| 1777995330 | 20.56° C | 67% | 1003.7 hPa | 0 mm | - | 774 W/m² | - |
| 1777995026 | 20.56° C | 68% | 1003.6 hPa | 0 mm | - | 739 W/m² | - |
| 1777994723 | 20.56° C | 69% | 1003.5 hPa | 0 mm | - | 412 W/m² | - |
| 1777994419 | 20.56° C | 69% | 1003.5 hPa | 0 mm | - | 759 W/m² | - |
| 1777994114 | 20° C | 68% | 1003.5 hPa | 0 mm | - | 760 W/m² | - |
| 1777993812 | 20° C | 68% | 1004 hPa | 0 mm | - | 711 W/m² | - |
| 1777993508 | 20.56° C | 67% | 1003.6 hPa | 0 mm | - | 707 W/m² | - |
| 1777993204 | 20.56° C | 69% | 1003.6 hPa | 0 mm | - | 753 W/m² | - |
| 1777992901 | 20.56° C | 68% | 1003.6 hPa | 0 mm | - | 744 W/m² | - |
| 1777992599 | 20° C | 70% | 1003.4 hPa | 0 mm | - | 771 W/m² | - |
| 1777992296 | 19.44° C | 70% | 1003.8 hPa | 0 mm | - | 789 W/m² | - |
| 1777991994 | 19.44° C | 71% | 1003.6 hPa | 0 mm | - | 724 W/m² | - |
| 1777991691 | 18.89° C | 72% | 1003.7 hPa | 0 mm | - | 686 W/m² | - |
| 1777991388 | 19.44° C | 72% | 1003.8 hPa | 0 mm | - | 684 W/m² | - |
| 1777991086 | 18.89° C | 72% | 1003.7 hPa | 0 mm | - | 629 W/m² | - |
| 1777990783 | 19.44° C | 73% | 1003.8 hPa | 0 mm | - | 695 W/m² | - |
* Rain latest hour (hover to see other rain measurements)
** Current wind speed in m/s (hover to see current wind gust speed)